User: anonymous   Login
Location: Broekland
(52.3610°N, 6.2005°E)
Time: 13:35:44
(UTC+00:00)
Language:

ARIANE 6 FM1 Upper Stage - Orbit

View from above orbital plane
View from above orbital plane
View from above satellite
View from above satellite

Ground track
Ground track

The orbit is defined by the following mean orbital elements,

1 60235U          26112.28232742 +.00000000 +00000-0 +13821-3 0 00009
2 60235  61.9941  65.6577 0056746 122.5943 238.0644 15.00871450    06
Epoch (UTC): 22 April 2026 06:46:33
Eccentricity: 0.0056746
inclination: 61.9941°
perigee height: 525 km
apogee height: 604 km
right ascension of ascending node: 65.6577°
argument of perigee: 122.5943°
revolutions per day: 15.00871450
mean anomaly at epoch: 238.0644°

The dashed part of the orbit path shows where the satellite is in the earth's shadow,  

DLR